Flag for Norway Weather past 2 weeks in Spydeberg, Norway

Now
34 °F

Light snow. Partly sunny.


Feels Like: 28 °F
Forecast: 28 / 36 °F
Wind: 7 mph from Southwest

Location: Rygge

Current Time: Dec 21, 2014 at 2:33:35 PM

Latest Report: Dec 21, 2014 at 1:50 PM


Visibility: N/A

Pressure: 29.71 "Hg

Humidity: 93%

Dew point: 32 °F

Location of SpydebergLocation

Historic Weather in Spydeberg — Graph

°F

Spydeberg temperature yesterday

Maximum temperature yesterday: 36 °F (at 12:20 AM)
Minimum temperature yesterday: 27 °F (at 7:50 PM)
Average temperature yesterday: 34 °F

Past Weeks' High & Low Weather Summary

 TemperatureHumidityPressure
High46 °F (Dec 7, 10:50 AM)100% (Dec 6, 12:20 PM)30.01 "Hg (Dec 6, 12:20 PM)
Low21 °F (Dec 17, 8:50 AM)56% (Dec 20, 9:20 PM)29.00 "Hg (Dec 12, 5:20 PM)
Average36 °F86%29.38 "Hg
* Reported Dec 6 12:20 PM — Dec 21 12:50 PM, Spydeberg, Weather by CustomWeather, © 2014

Note: Actual official high and low records may vary slightly from our data, if they occured in-between our weather recording intervals... More about our weather records

Advertising

Spydeberg weather history for previous 24 hours

 ConditionsComfort  
Time TempWeatherWind HumidityBarometerVisibility
12:50 PM
Dec 21
36 °FSunny.13 mph75%29.74 "Hg10 mi
12:20 PM37 °FSunny.14 mph65%29.74 "Hg10 mi
11:50 AM36 °FSunny.7 mph65%29.77 "Hg10 mi
11:20 AM36 °FSunny.9 mph65%29.77 "Hg10 mi
10:50 AM36 °FSunny.6 mph65%29.80 "Hg10 mi
10:20 AM34 °FClear.6 mph70%29.80 "HgN/A
9:50 AM34 °FSunny.6 mph70%29.80 "Hg10 mi
9:20 AM34 °FSunny.7 mph65%29.80 "Hg10 mi
8:50 AM34 °FClear.7 mph65%29.80 "Hg10 mi
8:20 AM32 °FClear.7 mph69%29.80 "Hg10 mi
7:50 AM36 °FPassing clouds.6 mph60%29.77 "HgN/A
7:20 AM34 °FPassing clouds.6 mph65%29.77 "HgN/A
6:50 AM34 °FPassing clouds.3 mph65%29.80 "HgN/A
6:20 AM34 °FClear.7 mph65%29.80 "Hg10 mi
5:50 AM36 °FChilly.8 mph60%29.80 "HgN/A
5:20 AM36 °FChilly.7 mph60%29.77 "HgN/A
4:50 AM36 °FChilly.6 mph65%29.77 "HgN/A
4:20 AM36 °FChilly.8 mph65%29.77 "HgN/A
3:50 AM36 °FPassing clouds.10 mph65%29.77 "HgN/A
3:20 AM36 °FChilly.10 mph65%29.77 "HgN/A
2:50 AM37 °FChilly.6 mph60%29.74 "HgN/A
2:20 AM37 °FChilly.7 mph60%29.74 "HgN/A
1:50 AM37 °FChilly.3 mph56%29.74 "HgN/A
1:20 AM28 °FChilly.2 mph69%29.71 "HgN/A
12:50 AM36 °FChilly.1 mph56%29.68 "HgN/A
12:20 AM34 °FChilly.1 mph60%29.68 "HgN/A
11:50 PM
Dec 20
36 °FChilly.2 mph60%29.68 "HgN/A
11:20 PM36 °FChilly.5 mph56%29.65 "HgN/A
10:50 PM30 °FClear.2 mph69%29.62 "Hg10 mi
10:20 PM30 °FClear.6 mph75%29.59 "Hg10 mi
9:50 PM36 °FClear.7 mph60%29.59 "Hg10 mi
9:20 PM36 °FClear.6 mph56%29.56 "Hg10 mi
8:50 PM36 °FPassing clouds.6 mph60%29.56 "HgN/A
8:20 PM34 °FClear.2 mph65%29.53 "Hg10 mi
7:50 PM27 °FClear.2 mph80%29.50 "Hg10 mi
7:20 PM28 °FClear.1 mph80%29.47 "Hg10 mi
6:50 PM30 °FClear.2 mph80%29.47 "Hg10 mi
6:20 PM30 °FClear.2 mph75%29.45 "Hg10 mi
5:50 PM32 °FClear.2 mph69%29.42 "Hg10 mi
5:20 PM30 °FClear.2 mph75%29.39 "Hg10 mi
4:50 PM34 °FPassing clouds.3 mph65%29.39 "HgN/A
4:20 PM34 °FClear.5 mph70%29.36 "Hg10 mi
3:50 PM34 °FClear.3 mph70%29.33 "Hg10 mi
3:20 PM36 °FPassing clouds.3 mph70%29.30 "HgN/A
2:50 PM36 °FSunny.7 mph75%29.30 "Hg10 mi
2:20 PM34 °FSunny.6 mph87%29.27 "Hg10 mi
Weather by CustomWeather, © 2014

See weather overviewHow to use our weather pages